Regional Weather Roundup
Issued by NWS

Home | Current Version | Previous Version | Text Only | Print | Product List | Glossary Off
Versions: 1 2 3 4 5 6 7 8 9 10 11 12 13 14 15 16 17 18 19 20 21 22 23 24 25 26 27 28 29 30 31 32 33 34 35 36 37 38 39 40 41 42 43 44 45 46 47 48 49 50

000
ASUS43 KDTX 240201
RWRMI
MICHIGAN HOURLY REGIONAL WEATHER ROUNDUP
NATIONAL WEATHER SERVICE DETROIT/PONTIAC MI
1000 PM EDT MON APR 23 2018

NOTE: "FAIR" INDICATES FEW OR NO CLOUDS BELOW 12,000 FEET WITH NO
SIGNIFICANT WEATHER AND/OR OBSTRUCTION TO VISIBILITY.

MIZ047>049-052>055-059>063-066>070-074>076-081>083-240300-
SOUTHEAST LOWER MICHIGAN

CITY           SKY/WX    TMP DP  RH WIND       PRES   REMARKS
ADRIAN         CLOUDY    56  46  69 S10       30.19R
ALMA           FAIR      53  42  65 SE5       30.13S
ANN ARBOR      MOCLDY    55  45  68 S5        30.18R
BAD AXE        FAIR      53  30  40 E5        30.17S
CARO           FAIR      60  38  45 SE5       30.14S
DETROIT CITY   FAIR      57  42  57 SW8       30.18R
DETROIT        CLOUDY    54  41  61 S3        30.19R
FLINT          FAIR      60  43  53 SE9       30.15R
GROSSE ILE     CLOUDY    48  42  79 CALM      30.18R
HILLSDALE      CLOUDY    55  45  67 S10G17    30.16S
HOWELL         FAIR      58  43  57 S12       30.17R

CITY           SKY/WX    TMP DP  RH WIND       PRES   REMARKS
JACKSON        CLOUDY    59  48  67 SE13      30.17R
LAMBERTVILLE   CLOUDY    59  44  56 SW5       30.18R
LANSING        FAIR      63  46  54 S10G22    30.15R
LAPEER         FAIR      59  39  46 S3        30.16R
MASON          CLOUDY    62  47  58 S7        30.16R
PONTIAC        CLOUDY    60  40  47 S8        30.16R
PORT HOPE        N/A     47  35  63 E7        30.15F
PORT HURON     FAIR      52  39  62 S3        30.18R
TRI CITIES     FAIR      46  39  76 NE7       30.15R
MIDLAND        FAIR      50  36  59 E3        30.14S
TROY           FAIR      60  40  48 S8        30.20R
SAGINAW HB     FAIR      46  41  81 CALM      30.14S
$$
MIZ043>046-050>051-056>058-064>065-071>073-077>080-240300-
SOUTHWEST LOWER MICHIGAN

CITY           SKY/WX    TMP DP  RH WIND       PRES   REMARKS
BATTLE CREEK   CLOUDY    58  50  75 S7        30.15R
BENTON HARBOR  CLOUDY    58  45  62 S3        30.12R
BIG RAPIDS     FAIR      56  34  44 CALM      30.12R
COLDWATER      CLOUDY    56  51  82 SE10      30.16R
FREMONT        FAIR      59  30  32 E6        30.10R
HOLLAND        FAIR      62  48  60 S15       30.11R
GRAND RAPIDS   CLOUDY    63  48  58 S17       30.12R
IONIA          FAIR      63  44  50 S13       30.12R
KALAMAZOO      CLOUDY    60  50  69 S6        30.14S
LUDINGTON      FAIR      52  31  44 NE3       30.11S
MARSHALL       CLOUDY    58  48  71 SE7       30.14S
MOUNT PLEASANT FAIR      59  38  44 E6        30.13R
MUSKEGON       MOCLDY    60  36  40 N7        30.09R
SOUTH HAVEN    CLOUDY    61  50  66 S7        30.11S
$$
MIZ016>042-240300-
NORTHERN LOWER MICHIGAN

CITY           SKY/WX    TMP DP  RH WIND       PRES   REMARKS
ALPENA         FAIR      43  30  60 CALM      30.18F
BEAVER ISLAND  FAIR      45  24  44 NE3       30.17S
CADILLAC       FAIR      51  27  40 NE3       30.13S
CHARLEVOIX     FAIR      49  25  39 CALM      30.18F
FRANKFORT      FAIR      53  25  33 E3        30.14S
GAYLORD        FAIR      48  26  42 NE3       30.16S
HARBOR SPRINGS FAIR      46  26  46 E6        30.16F
HOUGHTON LAKE  FAIR      53  35  50 E7        30.15R
MANISTEE       FAIR      53  27  36 NE7       30.13R
OSCODA         FAIR      44  28  54 NE3       30.17S
PELLSTON       FAIR      40  26  57 CALM      30.17F
ROGERS CITY    FAIR      40  28  63 CALM      30.19S
TRAVERSE CITY  MOCLDY    44  30  57 CALM      30.14S
$$
MIZ007>008-015-240300-
EASTERN UPPER MICHIGAN

CITY           SKY/WX    TMP DP  RH WIND       PRES   REMARKS
KINROSS        FAIR      48  20  32 CALM      30.18S
MACKINAC ISLAN FAIR      47  24  39 E5        30.17S
NEWBERRY       FAIR      46  23  41 S7        30.16S
S. S. MARIE    FAIR      50  23  34 E3        30.17S
MUNISING         N/A     51  27  39 S8        30.13S
$$
MIZ004>006-011>014-085-240300-
CENTRAL UPPER MICHIGAN

CITY           SKY/WX    TMP DP  RH WIND       PRES   REMARKS
MANISTIQUE     FAIR      38  25  58 CALM      30.15S
ESCANABA       FAIR      37  25  61 CALM      30.15S
MENOMINEE      FAIR      44  32  62 CALM      30.15S
SAWYER-GWINN   CLEAR     50  23  34 S7        30.14R
$$
MIZ001>003-009>011-084-240300-
WESTERN UPPER MICHIGAN

CITY           SKY/WX    TMP DP  RH WIND       PRES   REMARKS
IRON MOUNTAIN  FAIR      55  26  32 SE7       30.12R
HOUGHTON       FAIR      42  28  57 E3        30.11S
COPPER HARBOR    N/A     43  26  51 SW5       30.11R
IRONWOOD       FAIR      47  30  51 CALM      30.12S
$$

ABBREVIATIONS USED IN REMARKS
   TC - TEMPERATURE IN CELSIUS
  WCI - WIND CHILL INDEX
   HX - HEAT INDEX
  VSB - VISIBILITY




USA.gov is the U.S. government's official web portal to all federal, state and local government web resources and services.